Location: Ferchesar
(52.6477°N, 12.4298°E)
Time: 17:10:16
(UTC+01:00)

Transit 4A - All Passes

Search period start: 26 February 2021 00:00
Search period end: 08 March 2021 00:00
Orbit: 866 x 978 km, 66.8° (Epoch: 25 February)

Date Brightness Start Highest point End Pass type
(mag) Time Alt. Az. Time Alt. Az. Time Alt. Az.
26 Feb - 11:27:01 10° S 11:33:02 46° ESE 11:38:58 10° NE daylight
26 Feb - 13:13:11 10° WSW 13:19:25 53° NW 13:25:31 10° NE daylight
26 Feb - 15:02:02 10° WNW 15:07:09 25° NNW 15:12:10 10° NE daylight
26 Feb - 16:50:44 10° NW 16:55:36 23° N 17:00:21 10° ENE daylight
26 Feb - 18:37:41 10° NW 18:43:34 44° NE 18:49:15 10° ESE visible
26 Feb - 20:24:12 10° NW 20:30:10 57° WSW 20:35:56 10° SSE visible
26 Feb - 22:13:17 10° W 22:15:12 12° W 22:17:06 10° WSW visible
27 Feb - 09:53:58 10° SE 09:57:01 14° ESE 10:00:02 10° ENE daylight
27 Feb - 11:35:58 10° SSW 11:42:14 62° ESE 11:48:24 10° NE daylight
27 Feb - 13:22:54 10° WSW 13:28:55 43° NW 13:34:51 10° NE daylight
27 Feb - 15:11:59 10° WNW 15:16:53 23° N 15:21:43 10° NE daylight
27 Feb - 17:00:18 10° NW 17:05:21 25° NNE 17:10:17 10° ENE daylight
27 Feb - 18:47:01 10° NW 18:53:04 54° NE 18:58:54 10° ESE visible
27 Feb - 20:33:41 10° NW 20:39:20 41° WSW 20:44:49 10° S visible
28 Feb - 10:01:33 10° SSE 10:05:58 20° ESE 10:10:20 10° ENE daylight
28 Feb - 11:45:08 10° SSW 11:51:30 81° SE 11:57:47 10° NE daylight
28 Feb - 13:32:43 10° W 13:38:31 36° NNW 13:44:11 10° NE daylight
28 Feb - 15:21:54 10° NW 15:26:40 22° N 15:31:22 10° NE daylight
28 Feb - 17:09:48 10° NW 17:15:03 28° NNE 17:20:12 10° E daylight
28 Feb - 18:56:22 10° NW 19:02:30 70° NE 19:08:25 10° SE visible
28 Feb - 20:43:16 10° NW 20:48:26 30° WSW 20:53:28 10° S visible
01 Mar - 10:09:45 10° SSE 10:15:00 28° ESE 10:20:10 10° NE daylight
01 Mar - 11:54:28 10° SW 12:00:51 79° NW 12:07:08 10° NE daylight
01 Mar - 13:42:37 10° W 13:48:08 30° NNW 13:53:33 10° NE daylight
01 Mar - 15:31:44 10° NW 15:36:28 22° N 15:41:06 10° NE daylight
01 Mar - 17:19:13 10° NW 17:24:44 32° NNE 17:30:04 10° E daylight
01 Mar - 19:05:43 10° NW 19:11:52 90° ENE 19:17:48 10° SE visible
01 Mar - 20:53:02 10° WNW 20:57:27 22° WSW 21:01:47 10° SSW visible
02 Mar - 10:18:19 10° S 10:24:05 38° ESE 10:29:47 10° NE daylight
02 Mar - 12:03:58 10° SW 12:10:16 62° NW 12:16:27 10° NE daylight
02 Mar - 13:52:35 10° WNW 13:57:50 27° NNW 14:03:00 10° NE daylight
02 Mar - 15:41:28 10° NW 15:46:15 22° N 15:50:55 10° ENE daylight
02 Mar - 17:28:36 10° NW 17:34:20 38° NNE 17:39:54 10° E daylight
02 Mar - 19:15:05 10° NW 19:21:09 69° WSW 19:27:01 10° SSE visible
02 Mar - 21:03:10 10° WNW 21:06:24 15° WSW 21:09:36 10° SW visible
03 Mar - 08:47:00 10° ESE 08:48:14 11° E 08:49:28 10° E daylight
03 Mar - 10:27:08 10° SSW 10:33:14 51° ESE 10:39:16 10° NE daylight
03 Mar - 12:13:35 10° WSW 12:19:44 49° NW 12:25:46 10° NE daylight
03 Mar - 14:02:33 10° WNW 14:07:34 24° NNW 14:12:29 10° NE daylight
03 Mar - 15:51:06 10° NW 15:56:01 24° NNE 16:00:49 10° ENE daylight
03 Mar - 17:37:58 10° NW 17:43:53 47° NE 17:49:37 10° ESE daylight
03 Mar - 19:24:31 10° NW 19:30:22 51° WSW 19:36:02 10° SSE visible
04 Mar - 08:53:31 10° SE 08:57:08 16° ESE 09:00:43 10° ENE daylight
04 Mar - 10:36:10 10° SSW 10:42:28 68° ESE 10:48:41 10° NE daylight
04 Mar - 12:23:21 10° WSW 12:29:17 40° NW 12:35:06 10° NE daylight
04 Mar - 14:12:29 10° WNW 14:17:19 23° N 14:22:04 10° NE daylight
04 Mar - 16:00:39 10° NW 16:05:45 26° NNE 16:10:44 10° ENE daylight
04 Mar - 17:47:18 10° NW 17:53:22 59° NE 17:59:14 10° ESE daylight
04 Mar - 19:34:02 10° NW 19:39:31 37° WSW 19:44:51 10° S visible
05 Mar - 09:01:23 10° SSE 09:06:07 22° ESE 09:10:48 10° ENE daylight
05 Mar - 10:45:23 10° SW 10:51:47 88° ESE 10:58:03 10° NE daylight
05 Mar - 12:33:12 10° W 12:38:53 33° NNW 12:44:27 10° NE daylight
05 Mar - 14:22:22 10° NW 14:27:06 22° N 14:31:44 10° NE daylight
05 Mar - 16:10:07 10° NW 16:15:26 29° NNE 16:20:37 10° E daylight
05 Mar - 17:56:38 10° NW 18:02:47 76° NE 18:08:41 10° SE daylight
05 Mar - 19:43:39 10° NW 19:48:35 27° WSW 19:53:23 10° SSW visible
06 Mar - 09:09:43 10° S 09:15:10 31° ESE 09:20:32 10° NE daylight
06 Mar - 10:54:47 10° SW 11:01:08 72° NW 11:07:23 10° NE daylight
06 Mar - 12:43:07 10° W 12:48:32 29° NNW 12:53:50 10° NE daylight
06 Mar - 14:32:10 10° NW 14:36:53 22° N 14:41:30 10° NE daylight
06 Mar - 16:19:31 10° NW 16:25:05 34° NNE 16:30:30 10° E daylight
06 Mar - 18:05:59 10° NW 18:12:07 83° SW 18:18:02 10° SSE daylight
06 Mar - 19:53:32 10° WNW 19:57:35 19° WSW 20:01:33 10° SSW visible
07 Mar - 09:18:23 10° S 09:24:17 42° ESE 09:30:06 10° NE daylight
07 Mar - 11:04:19 10° WSW 11:10:34 57° NW 11:16:42 10° NE daylight
07 Mar - 12:53:05 10° WNW 12:58:15 26° NNW 13:03:17 10° NE daylight
07 Mar - 14:41:52 10° NW 14:46:40 23° N 14:51:21 10° ENE daylight
07 Mar - 16:28:54 10° NW 16:34:41 41° NE 16:40:17 10° ESE daylight
07 Mar - 18:15:23 10° NW 18:21:23 62° WSW 18:27:10 10° SSE daylight
07 Mar - 20:03:57 10° WNW 20:06:30 13° W 20:09:02 10° SW visible
